Regional Weather Roundup
Issued by NWS

Home | Current Version | Previous Version | Graphics & Text | Print | Product List | Glossary On
Versions: 1 2 3 4 5 6 7 8 9 10 11 12 13 14 15 16 17 18 19 20 21 22 23 24 25 26 27 28 29 30 31 32 33 34 35 36 37 38 39 40 41 42 43 44 45 46 47 48 49 50
693
ASUS43 KFSD 060702
RWRSD

WEATHER ROUNDUP FOR SOUTH DAKOTA
NATIONAL WEATHER SERVICE SIOUX FALLS SD
100 AM CST SAT FEB 06 2016

NOTE: "FAIR" INDICATES FEW OR NO CLOUDS BELOW 12,000 FEET WITH NO
SIGNIFICANT WEATHER AND/OR OBSTRUCTIONS TO VISIBILITY.


SDZ001>005-009-010-012>017-060800-
NORTHWEST AND NORTH CENTRAL SOUTH DAKOTA

CITY           SKY/WX    TMP DP  RH WIND       PRES   REMARKS
BUFFALO          N/A     31  20  63 W16       29.97F WCI  20
FAITH            N/A     29  20  69 SW14      30.06F WCI  18
MOBRIDGE       CLEAR     28  23  81 SE8       30.04F WCI  20
$$

SDZ012>016-024>037-041>051-057-063-072>074-060800-
SOUTHWEST AND SOUTH CENTRAL SOUTH DAKOTA

CITY           SKY/WX    TMP DP  RH WIND       PRES   REMARKS
RAPID CTY ARPT CLOUDY    24  15  68 CALM      30.11F
PIERRE         CLEAR     29  23  78 SW13      30.12F WCI  19
CUSTER         CLOUDY    27   9  46 W8        30.10F WCI  19
ELLSWORTH AFB  CLOUDY    29  17  60 SW7       30.09F WCI  22
PHILIP         CLOUDY    26  21  81 W8        30.14F WCI  18
PINE RIDGE     CLOUDY    25  13  60 SW6       30.19F WCI  18
WINNER         FAIR      29  20  69 SW7       30.18S WCI  22
$$

SDZ004>011-016>023-039-040-060800-
NORTHEAST SOUTH DAKOTA

CITY           SKY/WX    TMP DP  RH WIND       PRES   REMARKS
ABERDEEN       CLEAR     21  17  84 S7        30.10F WCI  12
WATERTOWN      CLOUDY    14  11  87 SE3       30.11F
BROOKINGS      FOG       20  18  92 S5        30.15F VSB 1/4 WCI  13
SISSETON         N/A     24  17  74 SW7       30.09F WCI  16
$$

SDZ017-020-022-023-036>040-048>070-060800-
SOUTHEAST SOUTH DAKOTA

CITY           SKY/WX    TMP DP  RH WIND       PRES   REMARKS
SIOUX FALLS    FOG       22  20  92 W6        30.19F VSB 1/4 WCI  14
HURON          CLEAR     24  21  88 S9        30.15S WCI  14
MITCHELL       CLEAR     25  22  88 SW8       30.19F WCI  16
YANKTON          N/A     23  19  86 SW7       30.22F VSB 1/2 WCI  15
$$

ABBREVIATIONS USED IN REMARKS
   TC - TEMPERATURE IN CELSIUS
  WCI - WIND CHILL INDEX
   HX - HEAT INDEX
  VSB - VISIBILITY





USA.gov is the U.S. government's official web portal to all federal, state and local government web resources and services.